sat.trackr.live / text

‹ back to catalog

EYESAT A (AO-27)

NORAD 22825 · 1993-061C

PAYLOAD ACTIVE UNKNOWN

§ Identity

Operator
Country
US
Launch date
1993-09-26
Launch site
FRGUI
Launch vehicle
Mass (kg)
RCS (m²)
0.18

Purposes: comms

External: N2YO · Heavens-Above · Gunter

§ Orbital elements

Epoch: 2026-09-04T03:40:32.052000Z

Period
100.63 min
Inclination
98.6811°
Eccentricity
0.0007609
Mean motion
14.30959201 rev/d
Perigee alt
783.1 km
Apogee alt
794.0 km
Semi-major
7,166.7 km
B*
2.7213e-5
RAAN
314.5110°
Arg perigee
222.8883°
Mean anomaly
137.1706°
Rev number
71,829

§ Raw data

EYESAT A (AO-27)1 22825U 93061C   26247.15314875  .00000027  00000+0  27213-4 0  99902 22825  98.6811 314.5110 0007609 222.8883 137.1706 14.30959201718290

JSON: /api/v1/satellites/22825 · /tle

For live sub-satellite position, see the globe view (requires WebGL).

§ Visibility from observer

Set your observer location to see the next 7 days of passes ≥ 10°. The values pass through the URL so the page stays shareable.

No JS? Fill the form by hand. The geolocation button needs JavaScript.

§ Radio — SatNOGS DB

ModeDescriptionDownlinkUplink
FM Mode S 2.218 GHz
GMSK Mode U - GMSK9k6 436.797 MHz
AFSK Mode U AFSK Beacon 436.795 MHz
FM Mode V/U FM 436.795 MHz 145.850 MHz

4 transmitters · refreshed weekly from db.satnogs.org